Result: 4th RIZAL Day 32K Run

3 01 2013

4th RIZAL Day 32K Run/Camp Aguinaldo/4:30 AM December 30, 2012

RANK BIB # N   A     M   E T I M E 
1 544 Jerry Adap (Champion) 2:37:46
2 516 Alfred Delos Reyes (1st Runner-Up) 2:39:54
3 596 Jerome Bautista (2nd Runner-Up) 2:40:10
4 595 Jose Randy Duenas 2:41:55
5 563 Jon Las Bruce 2:46:43
6 801 Graciano Santos 2:50:13
7 421 Cesar De Guzman 2:50:18
8 614 Arvin Galus 2:50:36
9 425 Roy Fuentes 2:50:45
10 429 Mark Rodica 2:54:00
11 892 Benedict Balaba 2:56:35
12 627 Jan Imperio 2:56:38
13 700 Junrox Roque 2:58:14
14 587 Philip Le Roux 2:58:23
15 444 Ronnel Go 2:59:25
16 528 Roberto Delos Santos 2:59:50
17 521 Mark Terrado 2:59:55
18 522 Mark Hernandez 3:01:43
19 410 Bob Castilla 3:08:24
20 558 Vergilio Bellen Jr 3:08:47
21 553 Jose Rico Gonzales 3:08:56
22 407 Randy Miranda 3:09:01
23 419 Camilla Brooks (Female Champion) 3:09:12
24 526 Vallen Co (1st Runner-Up, Female) 3:09:45
25 449 Noel Arellano 3:11:46
26 559 Carlito Buenaventura 3:12:04
27 543 Percival Dictado 3:14:09
28 551 Ruben Pascual 3:14:14
29 509 Angelo Maravilla 3:18:10
30 510 Wesley Noel Orana 3:18:11
31 575 Tommy Tan 3:19:00
32 403 Miguelito Capio 3:19:25
33 441 Kristian Mark Ison 3:19:43
34 406 Raffy Gabotero 3:19:54
35 792 JB Balaba 3:20:02
36 585 Ernesto Badong 3:20:13
37 576 Larry Daliwag 3:20:21
38 900 Sandy Alentajan 3:22:58
39 505 Zaldy Santillan 3:23:22
40 828 Henry Laron 3:24:27
41 540 Zen Cagulangan 3:25:14
42 420 Abel Ngo 3:28:56
43 514 Alwyn Sy 3:29:30
44 616 Alvin Adriano 3:30:04
45 422 Argie Lubon 3:30:12
46 626 Michael Flores 3:30:40
47 615 Fritze Andre Espinosa 3:31:29
48 800 Carl Balagot 3:32:56
49 523 Tin Ferrera (2nd Runner-Up, Female) 3:33:39
50 524 Ejercito Suyo 3:33:53
51 341 Macky Chamorro 3:34:00
52 342 Haydee Ann Chamorro (F) 3:34:01
53 513   3:34:18
54 508 Mavic Buada (F) 3:35:40
55 416 Tess Leono (F) 3:35:52
56 471 Natalie Ng (F) 3:36:33
57 614 Arvin Gales 3:37:15
58 561 Angie Lacaba (F) 3:37:17
59 578 Arnie Almero 3:37:40
60 607 Mark Anthony Delumen 3:38:57
61 423 Den Saluta 3:39:05
62 591 Jerry Adriano 3:39:20
63 541 Peter Ng 3:39:50
64 438 Roberto Dela Cruz 3:39:58
65 567 Jess Laxamana 3:40:09
66 573 Alexander Cruz 3:40:10
67 568 Lino Nicolas 3:40:11
68 506 Gia Estrella (F) 3:40:56
69 529 Joseph Sibal 3:41:08
70 602 Melchor Danes 3:42:08
71 427 Mark Chico 3:43:33
72 507 Michelle Angela Maravilla (F) 3:43:51
73 580 Kharl Ocampo 3:44:02
74 467 Jennylee Malijan (F) 3:44:12
75 439 Peterson Ong 3:44:18
76 435 Louie Rosales 3:44:19
77 606 Benny Jabanes 3:44:27
78 611 Glenn Joseph Protacio 3:44:45
79 636 Reagan Mollero 3:45:22
80 555 Vans Quiza 3:46:08
81 430 Abet Ocampo (F) 3:46:18
82 530 Johann Marquez 3:47:59
83 500 Ben Silva 3:48:27
84 692 Nicolai Pinto 3:48:38
85 517 Bald Runner 3:48:44
86 621 Jason Sison 3:48:49
87 542 Rolly De Juan 3:49:33
88 584 Henry Marchan 3:49:42
89 468 Michael Delarmente 3:50:02
90 539 Rodell Mendoza 3:50:57
91 432 Jaylord Ballao 3:51:44
92 537 Ricardo Mallari 3:52:01
93 409 Darryl Panado 3:53:16
94 462 Michael Lafuente 3:53:44
95 608 Yniguez Ysmael Uy 3:54:19
96 624 Caryll Ferrer (F) 3:54:23
97 623 Mark Jayson Antonio 3:54:24
98 442 Adel Torres 3:54:49
99 592 Celito Jose Macachor 3:55:58
100 515 Francisco Mallillin Jr 3:56:10
101 888 Ellen Solosod (F) 3:57:37
102 777 Ipe Mascarenas 3:57:39
103 431 Margarita Matibag (F) 3:59:08
104 534 Cliff Ivan Roda 4:01:31
105 457 Mark Conrad Molina 4:02:51
106 590 Geraldine Kun (F) 4:04:31
107 451 Arlo Monsato 4:05:16
108 556 Arvin Vincent Palomar 4:05:38
109 306   4:05:45
110 311 Leah Jingco (F) 4:05:55
111 577 Jerry Escolta 4:05:58
112 461 Jody Jacinto 4:05:59
113 464 Russell Hernandez 4:06:11
114 466 Mark Anthony Real 4:06:12
115 417 Yolly Barja (F) 4:06:21
116 412 Rogelio Palma 4:06:21
117 564 Karlene Sebastian (F) 4:06:40
118 565 Calvin John Escandor 4:06:41
119 533 Arceli Naval (F) 4:07:11
120 637 Chansiu Ping 4:07:43
121 597 Angela Racoma (F) 4:09:07
122 453 Danica Linda Mancenido (F) 4:09:08
123 518 Martin Kare 4:09:30
124 583 Jonah Rivera 4:09:52
125 711 Manny Ocampo 4:11:04
126 535 Ronald Sugapong 4:12:55
127 538 Noel Villoso 4:12:56
128 504 Ma. Theresa Pascual (F) 4:13:02
129 428 Milette Rances (F) 4:15:08
130 448 Ryan Ramos 4:17:14
131 605 Jeffrey Furigay 4:17:43
132 400 Teresa Generoso (F) 4:18:01
133 511 Katrina Constantino (F) 4:19:13
134 569 Toto Velmonte 4:19:52
135 570 Quito San Agustin 4:19:53
136 460 Ron Caringal 4:19:54
137 598 Stephanie Hefti (F) 4:21:04
138 572 Allenstein Co 4:21:06
139 459 Gerson Yuson 4:21:24
140 519 Marites Templado (F) 4:21:51
141 481 Kathleen Fresnido (F) 4:21:52
142 426 Donald Ausa 4:22:04
143 463 Elwar Jun Valdez 4:22:17
144 613 Gigay Gochianco (F) 4:22:37
145 452 Jun Ramos 4:22:49
146 440 Mye Ramos (F) 4:22:59
147 413 Llooyd Chuah 4:23:09
148 593 Joy Morano (F) 4:23:52
149 447 Hector Padrigo 4:24:14
150 450 Juvy Solabo (F) 4:24:15
151 458 Dionimar Maldo 4:24:16
152 594 Manuel Morano Jr 4:25:16
153 586 Macky Delima 4:27:56
154 620 Adrian Florendo 4:29:20
155 411 Mark Lloyd Gallardo 4:30:28
156 456 Linton Lim 4:30:34
157 545 Jordee Queddeng 4:31:28
158 434 Reynato Mercado 4:31:30
159 589 Lucas Lorenz 4:32:14
160 557 Richelle Perez (F) 4:33:39
161 603 Bong Sumicad 4:35:50
162 566 Noel Malco 4:36:49
163 491 Yang Yang Ng 4:38:02
164 502 Au Cruz (F) 4:38:15
165 546 Oscar Cosme 4:38:38
166 581 Nap Ocampo 4:39:22
167 554 Shirleen Sharma (F) 4:42:12
168 612 Fernando Labrador 4:42:40
169 437 Wilson John Barbon 4:42:50
170 526 Marvin Pangan 4:43:12
171 560 Ryan Mamaril 4:43:42
172 550 Vanessa Chan (F) 4:45:34
173 527 Efren Martinez 4:46:21
174 331 Vince Cruz 4:46:35
175 532 Ven Capili 4:47:20
176 405 Joseph Ligot 4:48:10
177 548 Dennis Que Pe 4:50:36
178 549 Jennifer Que Pe (F) 4:50:49
179 609 Roselyn Crizaldo (F) 4:51:01
180 446 Jennifer Bayani (F) 4:51:17
181 635 Rona Saludes (F) 4:52:14
182 619 Hermie Saludes 4:52:34
183 629 Kerwin Ng 4:53:46
184 628 Francis Pua 4:53:47
185 622 Leo Malagar 4:56:53
186 408 Carmeli Ortega (F) 4:57:09
187 433 Potch Redillas Manatlao 4:58:17
188 436 Ma. Theresa Villanueva (F) 5:00:19
189 610 Justin Josef Gomez 5:01:31
190 579 Nikko Peralta 5:02:20
191 503 Sherillyn Raga (F) 5:02:22
192 617 Mary Ng (F) 5:03:38
193 588 Lyra Rosario (F) 5:07:28
194 445 Raul Punzal 5:09:24
195 599 Jeyson De Ocampo 5:11:27
196 547 Joy Cayabyab (F) 5:25:14
197 582 Paul Pajo 5:25:56
198 414 Aladin Cordero 5:51:56
199 415 Carrie Cordero (F) 5:51:57
200 625 Glenda Jose (F) 5:55:46

Actions

Information

2 responses

3 01 2013
Beatrice Munoz

hi sir jovie…sorry sir to just correct again like sa T2N…abet ocampo is “female”…i mentioned this to the girls at the reg table but i guess it will take a long time for people to settle with my gender? thanks sir!

4 01 2013
tony jimenez

Congratulations to all the runners. You are all winners.

See you soon.

Tj Jimenez

Sent from my iPad

Leave a Reply

Please log in using one of these methods to post your comment:

WordPress.com Logo

You are commenting using your WordPress.com account. Log Out / Change )

Twitter picture

You are commenting using your Twitter account. Log Out / Change )

Facebook photo

You are commenting using your Facebook account. Log Out / Change )

Google+ photo

You are commenting using your Google+ account. Log Out / Change )

Connecting to %s




%d bloggers like this: